This demonstration page uses our WeatherBlox Daily Observations layout. Learn more.

Left ArrowRight Arrow

34.74481, -87.66753

Hourly Observations for September 27, 2022

Temp ( °F °C ) Dew Point ( °F °C ) Humidity (%) Winds ( mph kmh ) Pressure ( in mb ) Visibility ( mi km ) Precip ( " mm )
12:53 am 00:53 Clear 61 16.1 42 5.6 50 50 NNE 6 9 30.05 1018 10 16 0.00 0.00
1:53 am 01:53 Clear 59 15 42 5.6 53 53 VRB 3 6 30.05 1018 10 16 0.00 0.00
2:53 am 02:53 Clear 51 10.6 46 7.8 83 83 Calm 30.06 1018 10 16 0.00 0.00
3:53 am 03:53 Clear 49 9.4 45 7.2 86 86 Calm 30.06 1018 10 16 0.00 0.00
4:53 am 04:53 Clear 49 9.4 45 7.2 86 86 Calm 30.07 1018 10 16 0.00 0.00
5:53 am 05:53 Clear 47 8.3 45 7.2 93 93 Calm 30.09 1019 10 16 0.00 0.00
6:53 am 06:53 Sunny 47 8.3 45 7.2 93 93 Calm 30.10 1019 10 16 0.00 0.00
7:53 am 07:53 Sunny 53 11.7 47 8.3 80 80 Calm 30.11 1020 10 16 0.00 0.00
8:53 am 08:53 Sunny 61 16.1 48 8.9 62 62 Calm 30.13 1020 10 16 0.00 0.00
9:53 am 09:53 Sunny 67 19.4 46 7.8 47 47 Calm 30.15 1021 10 16 0.00 0.00
10:53 am 10:53 Sunny 71 21.7 39 3.9 31 31 N 8 13 30.15 1021 10 16 0.00 0.00
11:53 am 11:53 Sunny 74 23.3 41 5 30 30 N 8 13 30.15 1021 10 16 0.00 0.00
12:53 pm 12:53 Sunny 77 25 42 5.6 29 29 NNE 9 15 30.13 1020 10 16 0.00 0.00
1:53 pm 13:53 Sunny 77 25 42 5.6 29 29 NNE 13 20 30.11 1020 10 16 0.00 0.00
2:53 pm 14:53 Sunny 77 25 43 6.1 30 30 undefined N/A 30.10 1019 10 16 0.00 0.00
3:53 pm 15:53 Sunny 78 25.6 43 6.1 29 29 NNW 10 17 30.09 1019 10 16 0.00 0.00
4:53 pm 16:53 Sunny 77 25 40 4.4 26 26 VRB 7 11 30.08 1019 10 16 0.00 0.00
5:53 pm 17:53 Sunny 74 23.3 41 5 30 30 N 7 11 30.10 1019 10 16 0.00 0.00
6:53 pm 18:53 Clear 67 19.4 45 7.2 45 45 Calm 30.11 1020 10 16 0.00 0.00
7:53 pm 19:53 Clear 62 16.7 47 8.3 58 58 Calm 30.13 1020 10 16 0.00 0.00
8:53 pm 20:53 Clear 59 15 49 9.4 69 69 Calm 30.16 1021 10 16 0.00 0.00
9:53 pm 21:53 Clear 56 13.3 50 10 80 80 Calm 30.17 1022 10 16 0.00 0.00
10:53 pm 22:53 Clear 55 12.8 49 9.4 80 80 Calm 30.19 1022 10 16 0.00 0.00
11:53 pm 23:53 Clear 58 14.4 45 7.2 62 62 ENE 6 9 30.19 1022 10 16 0.00 0.00

Powered by AerisWeather